This demonstration page uses our WeatherBlox Daily Observations layout. Learn more.

39.29038, -76.61219

Hourly Observations for April 14, 2018

Temp ( °F °C ) Dew Point ( °F °C ) Humidity (%) Winds ( mph kmh ) Pressure ( in mb ) Visibility ( mi km ) Precip ( " mm )
12:54 am 00:54 undefined 75 23.9 49 9.4 40 40 undefined N/A 29.91 1013 N/A 0 0
1:54 am 01:54 undefined 73 22.8 49 9.4 43 43 undefined N/A 29.9 1013 N/A 0 0
2:54 am 02:54 undefined 71 21.7 50 10 47 47 undefined N/A 29.89 1012 N/A 0 0
3:54 am 03:54 undefined 70 21.1 50 10 49 49 undefined N/A 29.89 1012 N/A 0 0
4:54 am 04:54 undefined 69 20.6 51 10.6 53 53 undefined N/A 29.92 1013 N/A 0 0
5:54 am 05:54 undefined 67 19.4 51 10.6 57 57 undefined N/A 29.93 1013 N/A 0 0
6:54 am 06:54 undefined 67 19.4 51 10.6 57 57 undefined N/A 29.95 1014 N/A 0 0
7:54 am 07:54 undefined 70 21.1 53 11.7 55 55 undefined N/A 29.97 1015 N/A 0 0
8:54 am 08:54 undefined 72 22.2 54 12.2 53 53 undefined N/A 29.96 1015 N/A 0 0
9:54 am 09:54 undefined 75 23.9 55 12.8 50 50 undefined N/A 29.97 1015 N/A 0 0
10:54 am 10:54 undefined 77 25 55 12.8 47 47 undefined N/A 29.95 1014 N/A 0 0
11:54 am 11:54 undefined 81 27.2 57 13.9 44 44 undefined N/A 29.96 1014 N/A 0 0
12:54 pm 12:54 undefined 84 28.9 55 12.8 37 37 undefined N/A 29.93 1014 N/A 0 0
1:54 pm 13:54 undefined 86 30 54 12.2 33 33 undefined N/A 29.91 1013 N/A 0 0
2:54 pm 14:54 undefined 86 30 51 10.6 30 30 undefined N/A 29.88 1012 N/A 0 0
3:54 pm 15:54 undefined 86 30 52 11.1 31 31 undefined N/A 29.85 1011 N/A 0 0
4:54 pm 16:54 undefined 86 30 52 11.1 31 31 undefined N/A 29.84 1011 N/A 0 0
5:54 pm 17:54 undefined 84 28.9 52 11.1 33 33 undefined N/A 29.87 1012 N/A 0 0
6:54 pm 18:54 undefined 83 28.3 52 11.1 34 34 undefined N/A 29.88 1012 N/A 0 0
7:54 pm 19:54 undefined 82 27.8 53 11.7 37 37 undefined N/A 29.88 1012 N/A 0 0
8:54 pm 20:54 undefined 74 23.3 54 12.2 50 50 undefined N/A 29.91 1013 N/A 0 0
9:54 pm 21:54 undefined 70 21.1 55 12.8 59 59 undefined N/A 29.94 1014 N/A 0 0
10:54 pm 22:54 undefined 69 20.6 55 12.8 61 61 undefined N/A 29.94 1014 N/A 0 0
11:54 pm 23:54 undefined 69 20.6 55 12.8 61 61 undefined N/A 29.94 1014 N/A 0 0

Powered by AerisWeather